User: anonymous   Login
Location: *
(51.5000°N, 0.1100°W)
Time: 15:50:11
(UTC+00:00)
Language:

Cosmos 676 Rocket - Orbit

View from above orbital plane
View from above orbital plane
View from above satellite
View from above satellite

Ground track
Ground track

The orbit data is extracted from the following two-line orbital elements,

1 07434U 74071B   24201.92429657  .00000597  00000-0  20757-3 0  9995
2 07434  74.0464 136.4325 0019611 129.9411 230.3470 14.37495403608355
Epoch (UTC): 19 July 2024 22:10:59
Eccentricity: 0.0019611
inclination: 74.0464°
perigee height: 753 km
apogee height: 781 km
right ascension of ascending node: 136.4325°
argument of perigee: 129.9411°
revolutions per day: 14.37495403
mean anomaly at epoch: 230.3470°
orbit number at epoch: 60835

The dashed part of the orbit path shows where the satellite is in the earth's shadow,  

DLR